Location: Ocean City
(38.3360°N, 75.0850°W)
Time: 00:30:56
(UTC-05:00)

Tiros 1 - All Passes

Search period start: 12 November 2019 00:00
Search period end: 22 November 2019 00:00
Orbit: 630 x 664 km, 48.4° (Epoch: 11 November)

Date Brightness Start Highest point End Pass type
(mag) Time Alt. Az. Time Alt. Az. Time Alt. Az.
12 Nov - 15:32:17 10° SSW 15:36:30 36° SE 15:40:45 10° ENE daylight
12 Nov - 17:14:07 10° WSW 17:18:37 49° NNW 17:23:09 10° NE visible
12 Nov - 18:57:48 10° WNW 19:01:36 24° N 19:05:26 10° NE visible
12 Nov - 20:40:44 10° NW 20:44:51 29° NNE 20:49:00 10° ENE visible
12 Nov - 22:22:47 10° NW 22:27:32 85° NE 22:32:17 10° ESE night (unlit)
13 Nov - 00:06:03 10° W 00:09:16 18° SW 00:12:29 10° S night (unlit)
13 Nov - 14:18:25 10° SSE 14:20:49 14° SE 14:23:14 10° E daylight
13 Nov - 15:57:48 10° SW 16:02:25 82° SE 16:07:05 10° ENE daylight
13 Nov - 17:40:51 10° W 17:44:59 31° NNW 17:49:10 10° NE visible
13 Nov - 19:24:25 10° NW 19:28:12 24° N 19:32:01 10° ENE visible
13 Nov - 21:06:46 10° NW 21:11:16 43° NNE 21:15:48 10° E night (unlit)
13 Nov - 22:49:00 10° WNW 22:53:30 45° SW 22:58:01 10° SSE night (unlit)
14 Nov - 14:42:23 10° SSW 14:46:30 33° SE 14:50:39 10° ENE daylight
14 Nov - 16:24:03 10° WSW 16:28:34 52° NNW 16:33:07 10° NE daylight
14 Nov - 18:07:42 10° WNW 18:11:31 24° N 18:15:22 10° NE visible
14 Nov - 19:50:43 10° NW 19:54:46 28° NNE 19:58:52 10° ENE visible
14 Nov - 21:32:46 10° NW 21:37:29 80° NE 21:42:14 10° ESE night (unlit)
14 Nov - 23:15:52 10° W 23:19:16 20° SW 23:22:41 10° S night (unlit)
15 Nov - 13:28:51 10° SSE 13:30:51 13° SE 13:32:52 10° ESE daylight
15 Nov - 15:07:48 10° SW 15:12:24 76° SE 15:17:02 10° ENE daylight
15 Nov - 16:50:45 10° W 16:54:55 32° NNW 16:59:07 10° NE daylight
15 Nov - 18:34:22 10° NW 18:38:08 23° N 18:41:54 10° ENE visible
15 Nov - 20:16:46 10° NW 20:21:12 41° NNE 20:25:41 10° E visible
15 Nov - 21:58:57 10° WNW 22:03:29 49° SW 22:08:03 10° SE night (unlit)
16 Nov - 13:52:29 10° SSW 13:56:31 30° SE 14:00:34 10° ENE daylight
16 Nov - 15:34:00 10° WSW 15:38:32 55° NNW 15:43:06 10° NE daylight
16 Nov - 17:17:37 10° WNW 17:21:26 25° N 17:25:18 10° NE visible
16 Nov - 19:00:42 10° NW 19:04:42 27° NNE 19:08:43 10° ENE visible
16 Nov - 20:42:45 10° NW 20:47:26 74° NNE 20:52:10 10° ESE visible
16 Nov - 22:25:43 10° W 22:29:17 21° SW 22:32:52 10° S night (unlit)
17 Nov - 12:39:23 10° SSE 12:40:53 11° SE 12:42:22 10° ESE daylight
17 Nov - 14:17:49 10° SW 14:22:23 70° SE 14:27:00 10° ENE daylight
17 Nov - 16:00:40 10° W 16:04:51 33° NNW 16:09:05 10° NE daylight
17 Nov - 17:44:18 10° NW 17:48:02 23° N 17:51:48 10° NE visible
17 Nov - 19:26:46 10° NW 19:31:08 39° NNE 19:35:34 10° E visible
17 Nov - 21:08:54 10° WNW 21:13:29 53° SW 21:18:04 10° SE night (unlit)
18 Nov - 13:02:36 10° SSW 13:06:32 28° SE 13:10:27 10° ENE daylight
18 Nov - 14:43:56 10° WSW 14:48:29 59° NNW 14:53:04 10° NE daylight
18 Nov - 16:27:31 10° WNW 16:31:22 25° N 16:35:14 10° NE daylight
18 Nov - 18:10:40 10° NW 18:14:37 27° NNE 18:18:36 10° ENE visible
18 Nov - 19:52:44 10° NW 19:57:24 69° NNE 20:02:06 10° ESE visible
18 Nov - 21:35:34 10° W 21:39:17 23° SW 21:43:01 10° S night (unlit)
19 Nov - 11:50:21 10° SE 11:50:54 10° SE 11:51:27 10° ESE daylight
19 Nov - 13:27:49 10° SW 13:32:22 64° SE 13:36:57 10° ENE daylight
19 Nov - 15:10:34 10° W 15:14:48 35° NNW 15:19:04 10° NE daylight
19 Nov - 16:54:14 10° NW 16:57:57 23° N 17:01:41 10° NE daylight
19 Nov - 18:36:45 10° NW 18:41:05 37° NNE 18:45:27 10° E visible
19 Nov - 20:18:52 10° WNW 20:23:27 58° SW 20:28:04 10° SE visible
20 Nov - 12:12:44 10° S 12:16:32 26° SE 12:20:20 10° E daylight
20 Nov - 13:53:53 10° WSW 13:58:27 63° NNW 14:03:03 10° NE daylight
20 Nov - 15:37:24 10° WNW 15:41:17 26° N 15:45:11 10° NE daylight
20 Nov - 17:20:38 10° NW 17:24:33 26° N 17:28:28 10° ENE visible
20 Nov - 19:02:44 10° NW 19:07:22 65° NNE 19:12:02 10° ESE visible
20 Nov - 20:45:27 10° W 20:49:17 25° SW 20:53:08 10° S visible
21 Nov - 12:37:50 10° SW 12:42:22 59° SE 12:46:55 10° ENE daylight
21 Nov - 14:20:28 10° W 14:24:44 36° NNW 14:29:02 10° NE daylight
21 Nov - 16:04:10 10° NW 16:07:53 23° N 16:11:36 10° NE daylight
21 Nov - 17:46:45 10° NW 17:51:01 35° NNE 17:55:20 10° E visible
21 Nov - 19:28:50 10° WNW 19:33:26 63° SW 19:38:04 10° SE visible
21 Nov - 21:14:25 10° WSW 21:14:55 10° SW 21:15:25 10° SW night (unlit)
